Tracking 27112 objects as of 26-Mar-2023
HD Live streaming from Space Station
objects crossing your sky now

ORBCOMM FM 35

Track ORBCOMM FM 35 now!
10-day predictions
ORBCOMM FM 35 is classified as:


NORAD ID: 25985
Int'l Code: 1999-065F
Perigee: 783.2 km
Apogee: 788.5 km
Inclination: 45.0 °
Period: 100.4 minutes
Semi major axis: 7156 km
RCS: 0.5674 m2 (medium)
Launch date: December 4, 1999
Source: ORBCOMM (ORB)
Launch site: AIR FORCE EASTERN TEST RANGE (AFETR)
Your satellite tracking list
Your tracking list is empty




NASA's NSSDC Master Catalog

Two Line Element Set (TLE):
1 25985U 99065F   23084.87344847  .00002104  00000-0  79820-3 0  9996
2 25985  45.0415 337.2840 0003691 306.5359  53.5148 14.33910441217799
Source of the keplerian elements: AFSPC